DW9665 Sarajevo BA current weather conditions

sailwx.info

Wind from 338

Air temperature 19.4° C
Dewpoint 16.7° C

Last reported at 2016-Jul-30 03:47 UTC.
Time now 2016-Jul-30 05:30 UTC

Location: N 43°50' E 018°21'.
View on Google Maps.

See reports from other nearby stations

  
Tides and Currents Weather Stations Pressure Air Temp Water Temp Dewpoint Dewpoint Depression Visibility Wind Speed Wind Dir Waves Ship Positions
date/time (UTC)wind fromknots sea level pressurealtimeterstation pressurevisibilityair tempwater tempwave heightnotes
2016-Jul-30 04:47 19.4
2016-Jul-30 04:32 292 19.4
2016-Jul-30 04:17 292 19.4
2016-Jul-30 04:02 292 19.4
2016-Jul-30 03:47 338 19.4
2016-Jul-30 03:32 180 19.4
2016-Jul-30 03:17 180 19.4
2016-Jul-30 03:02 180 19.4
2016-Jul-30 02:47 158 2 gusting 3 19.4
2016-Jul-30 02:32 135 0 gusting 3 19.4
2016-Jul-30 02:17 180 0 gusting 1 19.4
2016-Jul-30 02:02 270 19.4
2016-Jul-30 01:47 270 19.4
2016-Jul-30 01:32 270 1 gusting 2 20.0
2016-Jul-30 01:17 270 0 gusting 2 20.0
2016-Jul-30 01:02 20.0
2016-Jul-30 00:47 135 0 gusting 1 20.0
2016-Jul-30 00:32 135 20.0
2016-Jul-30 00:17 135 20.6
2016-Jul-30 00:02 135 20.6
2016-Jul-29 23:47 135 20.6
2016-Jul-29 23:32 135 20.6
2016-Jul-29 23:17 135 21.1
2016-Jul-29 23:02 135 0 gusting 2 21.1
2016-Jul-29 22:47 180 21.1
2016-Jul-29 22:32 270 0 gusting 1 21.7
2016-Jul-29 22:17 270 21.7
2016-Jul-29 22:02 270 0 gusting 2 21.7
2016-Jul-29 21:47 292 1 gusting 2 21.7
2016-Jul-29 21:32 180 0 gusting 3 21.7
2016-Jul-29 21:17 292 1 gusting 3 22.2
2016-Jul-29 21:02 270 1 gusting 3 22.2
2016-Jul-29 20:47 270 22.2
2016-Jul-29 20:32 270 2 gusting 3 22.2
2016-Jul-29 20:17 270 0 gusting 5 22.8
2016-Jul-29 20:02 270 3 gusting 5 22.8
2016-Jul-29 19:47 270 1 gusting 5 23.3
2016-Jul-29 19:32 270 1 gusting 3 23.3
2016-Jul-29 19:17 315 2 gusting 3 23.3
2016-Jul-29 19:02 338 1 gusting 2 23.3
2016-Jul-29 18:47 270 0 gusting 5 23.3
2016-Jul-29 18:32 022 2 gusting 5 23.9
2016-Jul-29 18:17 292 5 gusting 8 23.9
2016-Jul-29 18:02 270 5 gusting 8 24.4
2016-Jul-29 17:47 292 4 gusting 7 24.4
2016-Jul-29 17:32 270 1 gusting 5 25.0
2016-Jul-29 17:17 292 5 gusting 6 25.0
2016-Jul-29 17:02 045 4 gusting 5 25.6
2016-Jul-29 16:47 315 3 gusting 5 26.1
2016-Jul-29 16:32 292 0 gusting 3 26.1
2016-Jul-29 16:17 158 0 gusting 3 26.7
2016-Jul-29 16:02 338 2 gusting 6 26.7
2016-Jul-29 15:47 27.2
2016-Jul-29 15:32 180 2 gusting 6 28.3
2016-Jul-29 15:17 338 2 gusting 3 28.9
2016-Jul-29 15:02 292 0 gusting 5 27.8
2016-Jul-29 14:47 315 1 gusting 3 28.3
2016-Jul-29 14:32 338 0 gusting 5 28.9
2016-Jul-29 14:17 315 2 gusting 6 28.9
2016-Jul-29 14:02 158 0 gusting 6 29.4
2016-Jul-29 13:47 180 5 gusting 7 28.9
2016-Jul-29 13:32 180 30.0
2016-Jul-29 13:17 180 3 gusting 5 28.9
2016-Jul-29 13:02 135 0 gusting 3 28.9
2016-Jul-29 12:47 315 1 gusting 5 28.3
2016-Jul-29 12:32 292 3 gusting 5 28.9
2016-Jul-29 12:17 270 2 gusting 4 28.9
2016-Jul-29 12:02 270 2 gusting 5 27.8
2016-Jul-29 11:47 270 0 gusting 6 27.2
2016-Jul-29 11:32 135 27.2
2016-Jul-29 11:17 270 1 gusting 5 26.7
2016-Jul-29 11:02 180 2 gusting 5 25.6
2016-Jul-29 10:47 270 1 gusting 6 25.0
2016-Jul-29 10:32 270 3 gusting 4 25.0
2016-Jul-29 10:17 270 1 gusting 3 25.0
2016-Jul-29 10:02 112 23.9
2016-Jul-29 09:47 270 0 gusting 5 23.3
2016-Jul-29 09:32 180 2 gusting 5 22.8
2016-Jul-29 09:17 180 1 gusting 4 22.8
2016-Jul-29 09:02 270 1 gusting 5 22.2
2016-Jul-29 08:47 270 22.8
2016-Jul-29 08:32 270 22.8
2016-Jul-29 08:17 338 22.2
2016-Jul-29 08:02 338 21.7
2016-Jul-29 07:47 158 22.2
2016-Jul-29 07:32 158 0 gusting 1 20.6
2016-Jul-29 07:17 112 21.1
2016-Jul-29 07:02 135 20.6
2016-Jul-29 06:47 158 0 gusting 2 19.4
2016-Jul-29 06:32 158 19.4
2016-Jul-29 06:17 135 18.9
2016-Jul-29 06:02 135 1 gusting 2 18.3
2016-Jul-29 05:47 112 0 gusting 2 17.8
2016-Jul-29 05:32 135 0 gusting 3 17.8
2016-Jul-29 05:17 135 2 gusting 3 17.8
2016-Jul-29 05:02 180 0 gusting 2 17.8
2016-Jul-29 04:47 180 17.8
2016-Jul-29 04:32 338 17.8
2016-Jul-29 04:17 022 17.8
2016-Jul-29 04:02 022 17.8
2016-Jul-29 03:47 17.8
2016-Jul-29 03:32 17.8
2016-Jul-29 03:17 180 17.8
2016-Jul-29 03:02 180 0 gusting 2 17.8
2016-Jul-29 02:47 090 17.8
2016-Jul-29 02:32 158 0 gusting 1 17.8
2016-Jul-29 02:17 022 0 gusting 1 17.8
2016-Jul-29 02:02 315 0 gusting 1 17.8
2016-Jul-29 01:47 17.8
2016-Jul-29 01:32 045 17.8
2016-Jul-29 01:17 338 1 gusting 3 18.3
2016-Jul-29 01:02 068 18.3
2016-Jul-29 00:47 158 0 gusting 2 18.3
2016-Jul-29 00:32 158 0 gusting 1 18.3
2016-Jul-29 00:17 135 0 gusting 2 18.3
2016-Jul-29 00:02 090 18.3
2016-Jul-28 23:47 022 1 gusting 2 18.3
2016-Jul-28 23:32 022 18.3
2016-Jul-28 23:17 135 18.3
2016-Jul-28 23:02 112 18.3
2016-Jul-28 22:47 112 18.3
2016-Jul-28 22:32 112 0 gusting 2 18.3
2016-Jul-28 22:17 180 1 gusting 2 18.9
2016-Jul-28 22:02 158 18.9
2016-Jul-28 21:47 158 18.9
2016-Jul-28 21:32 180 1 gusting 3 18.9
2016-Jul-28 21:17 090 1 gusting 2 18.9
2016-Jul-28 21:02 180 19.4
2016-Jul-28 20:47 180 19.4
2016-Jul-28 20:32 180 1 gusting 2 19.4
2016-Jul-28 20:17 158 1 gusting 3 20.0
2016-Jul-28 20:02 158 20.6
2016-Jul-28 19:47 180 20.6
2016-Jul-28 19:32 270 1 gusting 11 21.1
2016-Jul-28 19:17 158 6 gusting 9 21.1
2016-Jul-28 19:02 112 2 gusting 9 21.1
2016-Jul-28 18:47 068 5 gusting 6 21.1
2016-Jul-28 18:32 045 3 gusting 6 20.6
2016-Jul-28 18:17 112 3 gusting 7 20.6
2016-Jul-28 18:02 135 1 gusting 4 21.1
2016-Jul-28 17:47 158 1 gusting 5 21.7
2016-Jul-28 17:32 158 21.7
2016-Jul-28 17:17 158 21.7
2016-Jul-28 17:02 158 1 gusting 1 22.2
2016-Jul-28 16:47 158 22.2
2016-Jul-28 16:32 112 0 gusting 2 22.2
2016-Jul-28 16:17 158 0 gusting 2 21.7
2016-Jul-28 16:02 158 1 gusting 4 21.7
2016-Jul-28 15:47 180 2 gusting 3 21.7
2016-Jul-28 15:32 045 21.7
2016-Jul-28 15:17 180 0 gusting 3 21.7
2016-Jul-28 15:02 180 2 gusting 1 21.1
2016-Jul-28 14:47 180 20.6
2016-Jul-28 14:32 090 1 gusting 5 20.0
2016-Jul-28 14:17 270 0 gusting 3 20.0
2016-Jul-28 14:02 19.4
2016-Jul-28 13:47 090 4 gusting 6 20.0
2016-Jul-28 13:32 158 2 gusting 5 20.0
2016-Jul-28 13:17 112 4 gusting 5 20.6
2016-Jul-28 13:02 180 3 gusting 6 20.6
2016-Jul-28 12:47 21.1
2016-Jul-28 12:32 21.7
2016-Jul-28 12:17 068 2 gusting 6 22.2
2016-Jul-28 12:02 068 2 gusting 7 22.8
2016-Jul-28 11:47 180 8 gusting 13 25.0
2016-Jul-28 11:32 158 5 gusting 6 26.7
2016-Jul-28 11:17 270 5 gusting 9 27.2
2016-Jul-28 11:02 292 6 gusting 6 27.2
2016-Jul-28 10:47 292 5 gusting 8 26.7
2016-Jul-28 10:32 270 2 gusting 6 26.7
2016-Jul-28 10:17 292 1 gusting 5 27.2
2016-Jul-28 10:02 270 0 gusting 4 26.7
2016-Jul-28 09:47 180 25.6
2016-Jul-28 09:32 270 1 gusting 3 25.6
2016-Jul-28 09:17 270 25.0
2016-Jul-28 09:02 270 25.0
2016-Jul-28 08:47 270 24.4
2016-Jul-28 08:32 180 24.4
2016-Jul-28 08:17 180 23.9
2016-Jul-28 08:02 270 23.3
2016-Jul-28 07:47 180 21.7
2016-Jul-28 07:32 180 2 gusting 3 21.7
2016-Jul-28 07:17 180 20.6
2016-Jul-28 07:02 180 0 gusting 3 20.0
2016-Jul-28 06:47 20.6
2016-Jul-28 06:32 158 0 gusting 1 20.0
2016-Jul-28 06:17 180 0 gusting 2 18.9
2016-Jul-28 06:02 180 18.3
2016-Jul-28 05:47 180 17.8
2016-Jul-28 05:32 180 0 gusting 2 17.8
2016-Jul-28 05:17 180 1 gusting 2 17.8
2016-Jul-28 05:02 180 1 gusting 2 17.8